CW0630 Weather Reports


time (UTC)temp
C
wind
direction
speed
KPH
gust
KPH
rain 1hr
cm
rain 24hr
cm
rain mn
cm
humidity
%
barometer
mb
20230131231024 3 360 4.8 6.4 0.05 0.41 0.41 94 1021.5
20230131221012 4 22 3.2 6.4 0.00 0.36 0.36 93 1021.4
20230131211017 5 50 6.4 6.4 0.00 0.36 0.36 94 1021.3
20230131201013 5 350 14.5 14.5 0.10 0.36 0.36 93 1020.8
20230131191023 5 329 8.0 9.7 0.10 0.28 0.28 93 1021.9
20230131181026 6 26 8.0 8.0 0.05 0.18 0.18 92 1021.2
20230131171024 6 45 11.3 11.3 0.05 0.13 0.13 91 1022.8
20230131161016 8 360 4.8 4.8 0.00 0.08 0.08 92 1022.7
20230131151021 10 68 9.7 9.7 0.00 0.08 0.08 94 1022.3
20230131141019 10 101 6.4 9.7 0.08 0.08 0.08 95 1020.9
20230131131025 10 259 1.6 1.6 0.03 0.03 0.03 94 1020.9
20230131121013 10 216 3.2 3.2 0.00 0.00 0.00 93 1019.8
20230131111016 10 202 8.0 8.0 0.00 0.00 0.00 94 1019.2
20230131101015 10 207 8.0 8.0 0.00 0.00 0.00 95 1019.2
20230131091022 10 194 11.3 11.3 0.00 0.00 0.00 95 1018.9
20230131081021 10 196 3.2 4.8 0.00 0.00 0.00 95 1018.7
20230131071014 10 192 6.4 6.4 0.00 0.00 0.00 95 1019.1
20230131061042 9 206 4.8 4.8 0.00 0.00 0.00 95 1019.3
20230131051054 9 198 1.6 3.2 0.00 0.00 0.00 95 1019.7
20230131041018 9 194 3.2 6.4 0.00 0.00 0.05 94 1020.1
20230131031031 9 187 3.2 4.8 0.00 0.00 0.05 93 1020.4
20230131021045 10 188 3.2 3.2 0.00 0.00 0.05 91 1020.0
20230131011030 10 197 3.2 3.2 0.00 0.00 0.05 88 1020.2
20230131001032 12 180 3.2 3.2 0.00 0.05 0.05 81 1020.1